FW6788 Weather Reports


time (UTC)temp
C
wind
direction
speed
KPH
gust
KPH
rain 1hr
cm
rain 24hr
cm
rain mn
cm
humidity
%
barometer
mb
20260502151503 17 157 1.6 14.5 0.00 0.00 0.00 76 1023.2
20260502130103 17 93 3.2 16.1 0.00 0.00 0.00 79 1024.5
20260502123049 17 57 1.6 14.5 0.00 0.00 0.00 77 1024.8
20260502121558 18 142 0.0 9.7 0.00 0.00 0.00 75 1024.7
20260502120105 17 105 6.4 17.7 0.00 0.00 0.00 74 1024.8
20260502114553 17 82 1.6 14.5 0.00 0.00 0.00 74 1024.9
20260502113104 17 101 6.4 14.5 0.00 0.00 0.00 76 1025.0
20260502111547 18 101 3.2 11.3 0.00 0.00 0.00 70 1025.0
20260502110047 18 75 4.8 14.5 0.00 0.00 0.00 69 1025.0
20260502104542 17 40 3.2 6.4 0.00 0.00 0.00 68 1025.1
20260502103102 17 70 0.0 0.0 0.00 0.00 0.00 69 1025.3
20260502101548 17 99 0.0 1.6 0.00 0.00 0.00 70 1025.3
20260502091528 16 355 0.0 0.0 0.00 0.00 0.00 80 1025.5
20260502071520 15 55 0.0 6.4 0.00 0.00 0.00 87 1025.6
20260502070020 15 334 0.0 4.8 0.00 0.00 0.00 88 1025.7
20260502064518 15 77 0.0 6.4 0.00 0.00 0.00 88 1025.7
20260502063018 15 67 0.0 6.4 0.00 0.00 0.00 88 1025.6
20260502061518 15 92 0.0 0.0 0.00 0.00 0.00 88 1025.6
20260502060017 15 89 0.0 0.0 0.00 0.00 0.00 88 1025.6
20260502054516 15 128 0.0 0.0 0.00 0.00 0.00 88 1025.4
20260502053015 15 83 0.0 6.4 0.00 0.00 0.00 88 1025.4
20260502051519 15 70 0.0 6.4 0.00 0.00 0.00 88 1025.3
20260502050018 15 298 0.0 6.4 0.00 0.00 0.00 88 1025.1
20260502044513 15 70 0.0 4.8 0.00 0.00 0.00 88 1025.1
20260502043018 15 75 0.0 14.5 0.00 0.00 0.00 88 1025.3
20260502041511 15 113 0.0 8.0 0.00 0.00 0.00 88 1025.2
20260502040011 15 95 0.0 9.7 0.00 0.00 0.00 88 1025.2
20260502034515 15 86 1.6 14.5 0.00 0.00 0.00 88 1025.3
20260502033010 15 60 1.6 17.7 0.00 0.00 0.00 87 1025.3
20260502031510 15 28 1.6 11.3 0.00 0.00 0.00 86 1025.4
20260502030007 15 65 4.8 12.9 0.00 0.00 0.00 86 1025.4
20260502024507 15 96 1.6 9.7 0.00 0.00 0.00 85 1025.5
20260502023005 15 89 0.0 6.4 0.00 0.00 0.00 86 1025.5
20260502021504 15 360 0.0 12.9 0.00 0.00 0.00 87 1025.5
20260502020003 15 87 0.0 4.8 0.00 0.00 0.00 87 1025.5
20260502014502 15 63 1.6 12.9 0.00 0.00 0.00 88 1025.6
20260502013001 15 115 3.2 14.5 0.00 0.00 0.00 88 1025.6
20260502011559 15 108 0.0 6.4 0.00 0.00 0.00 87 1025.7
20260502010059 15 296 0.0 9.7 0.00 0.00 0.00 87 1025.8
20260502004557 15 346 0.0 6.4 0.00 0.00 0.00 87 1025.9
20260502003056 15 101 0.0 6.4 0.00 0.00 0.00 86 1026.2
20260502001549 15 67 0.0 9.7 0.00 0.00 0.00 86 1026.3
20260502000044 15 86 0.0 6.4 0.00 0.00 0.00 87 1026.5
20260501234540 15 67 0.0 4.8 0.00 0.00 0.00 87 1026.7
20260501233049 15 87 0.0 6.4 0.00 0.00 0.00 87 1026.8
20260501231535 15 89 0.0 3.2 0.00 0.00 0.00 88 1026.8
20260501230030 15 98 0.0 0.0 0.00 0.00 0.00 88 1026.8
20260501224527 15 338 0.0 11.3 0.00 0.00 0.00 88 1026.6
20260501223033 15 67 0.0 4.8 0.00 0.00 0.00 88 1026.7
20260501221517 15 81 0.0 1.6 0.00 0.00 0.00 88 1026.6
20260501220012 15 170 0.0 6.4 0.00 0.00 0.00 88 1026.6
20260501214526 15 29 0.0 1.6 0.00 0.00 0.00 88 1026.6
20260501213011 15 355 0.0 4.8 0.00 0.00 0.00 89 1026.7
20260501211510 15 355 0.0 14.5 0.00 0.00 0.00 89 1026.6
20260501210010 15 334 0.0 9.7 0.00 0.00 0.00 88 1026.6
20260501204509 15 290 0.0 16.1 0.00 0.00 0.00 88 1026.6
20260501203016 15 103 0.0 6.4 0.00 0.00 0.00 89 1026.6
20260501201507 15 101 0.0 4.8 0.00 0.00 0.00 89 1026.4
20260501200006 15 60 0.0 9.7 0.00 0.00 0.00 89 1026.4
20260501194504 15 64 1.6 12.9 0.00 0.00 0.00 88 1026.1
20260501193002 15 71 1.6 14.5 0.00 0.00 0.00 88 1026.1
20260501191502 15 101 0.0 9.7 0.00 0.00 0.00 88 1025.8
20260501190100 15 335 1.6 8.0 0.00 0.00 0.00 88 1025.8
20260501184616 15 113 1.6 17.7 0.00 0.00 0.00 88 1025.7
20260501183058 15 43 0.0 9.7 0.00 0.00 0.00 88 1025.5
20260501181619 15 78 4.8 20.9 0.00 0.00 0.00 87 1025.3
20260501180101 15 102 3.2 14.5 0.00 0.00 0.00 86 1025.1
20260501174556 15 64 4.8 17.7 0.00 0.00 0.00 86 1025.0
20260501173054 15 101 3.2 19.3 0.00 0.00 0.00 85 1025.0
20260501171601 15 309 1.6 17.7 0.00 0.00 0.00 85 1024.9
20260501170109 16 106 3.2 20.9 0.00 0.00 0.00 83 1024.8
20260501164556 16 90 1.6 19.3 0.00 0.00 0.00 82 1024.7
20260501163052 16 83 1.6 22.5 0.00 0.00 0.00 81 1024.7
20260501161552 16 71 1.6 20.9 0.00 0.00 0.00 78 1024.9